Time,TemperatureF,DewpointF,PressureIn,WindDirection,WindDirectionDegrees,WindSpeedMPH,WindSpeedGustMPH,Humidity,HourlyPrecipIn,Conditions,Clouds,dailyrainin,SoftwareType,DateUTC
2013-02-02 00:00:00,34.6,13.3,29.96,NW,315,0.0,0.0,41,0.00,,---,0.00,VWS V14.01,2013-02-02 05:00:00,
2013-02-02 00:30:00,33.5,14.9,29.96,NW,315,0.0,1.0,46,0.00,,---,0.00,VWS V14.01,2013-02-02 05:30:00,
2013-02-02 01:00:00,33.0,14.0,29.96,NW,315,0.0,1.0,45,0.00,,---,0.00,VWS V14.01,2013-02-02 06:00:00,
2013-02-02 01:30:00,31.5,17.6,29.96,NW,315,0.0,0.0,56,0.00,,---,0.00,VWS V14.01,2013-02-02 06:30:00,
2013-02-02 02:00:00,31.7,15.2,29.97,NW,315,0.0,2.0,50,0.00,,---,0.00,VWS V14.01,2013-02-02 07:00:00,
2013-02-02 02:30:00,31.2,15.6,29.96,NW,315,0.0,1.0,52,0.00,,---,0.00,VWS V14.01,2013-02-02 07:30:00,
2013-02-02 03:00:00,30.3,17.3,29.96,NW,315,0.0,0.0,58,0.00,,---,0.00,VWS V14.01,2013-02-02 08:00:00,
2013-02-02 03:30:00,29.7,18.7,29.96,NW,315,0.0,0.0,63,0.00,,---,0.00,VWS V14.01,2013-02-02 08:30:00,
2013-02-02 04:00:00,29.7,20.1,29.95,NW,315,0.0,0.0,67,0.00,,---,0.00,VWS V14.01,2013-02-02 09:00:00,
2013-02-02 04:30:00,29.0,19.8,29.95,NW,315,0.0,0.0,68,0.00,,---,0.00,VWS V14.01,2013-02-02 09:30:00,
2013-02-02 05:00:00,28.7,20.8,29.95,NW,315,0.0,0.0,72,0.00,,---,0.00,VWS V14.01,2013-02-02 10:00:00,
2013-02-02 05:30:00,28.3,20.8,29.95,NW,315,0.0,0.0,73,0.00,,---,0.00,VWS V14.01,2013-02-02 10:30:00,
2013-02-02 06:00:00,27.3,20.8,29.94,NW,315,0.0,0.0,76,0.00,,---,0.00,VWS V14.01,2013-02-02 11:00:00,
2013-02-02 06:30:00,27.3,20.4,29.96,NW,315,0.0,0.0,75,0.00,,---,0.00,VWS V14.01,2013-02-02 11:30:00,
2013-02-02 07:00:00,26.9,22.4,29.95,NW,315,0.0,0.0,83,0.00,,---,0.00,VWS V14.01,2013-02-02 12:00:00,
2013-02-02 07:30:00,26.7,22.2,29.96,NW,315,0.0,0.0,83,0.00,,---,0.00,VWS V14.01,2013-02-02 12:30:00,
2013-02-02 08:00:00,27.6,23.1,29.96,NW,315,0.0,0.0,83,0.00,,---,0.00,VWS V14.01,2013-02-02 13:00:00,
2013-02-02 08:30:00,30.3,22.7,29.96,NW,315,0.0,0.0,73,0.00,,---,0.00,VWS V14.01,2013-02-02 13:30:00,
2013-02-02 09:00:00,32.5,23.1,29.95,NW,315,0.0,1.0,68,0.00,,---,0.00,VWS V14.01,2013-02-02 14:00:00,
2013-02-02 09:30:00,35.1,20.1,29.96,NE,45,0.0,2.0,54,0.00,,---,0.00,VWS V14.01,2013-02-02 14:30:00,
2013-02-02 10:00:00,37.3,19.4,29.95,ENE,68,1.0,4.0,48,0.00,,---,0.00,VWS V14.01,2013-02-02 15:00:00,
2013-02-02 10:30:00,38.5,20.5,29.94,SE,135,1.0,6.0,48,0.00,,---,0.00,VWS V14.01,2013-02-02 15:30:00,
2013-02-02 11:00:00,41.6,18.5,29.93,South,180,2.0,7.0,39,0.00,,---,0.00,VWS V14.01,2013-02-02 16:00:00,
2013-02-02 11:30:00,43.4,14.8,29.92,South,180,2.0,7.0,31,0.00,,---,0.00,VWS V14.01,2013-02-02 16:30:00,
2013-02-02 12:00:00,44.7,15.9,29.91,South,180,2.0,7.0,31,0.00,,---,0.00,VWS V14.01,2013-02-02 17:00:00,
2013-02-02 12:30:00,47.4,15.9,29.88,SW,225,2.0,9.0,28,0.00,,---,0.00,VWS V14.01,2013-02-02 17:30:00,
2013-02-02 13:00:00,49.5,15.1,29.85,South,180,3.0,10.0,25,0.00,,---,0.00,VWS V14.01,2013-02-02 18:00:00,
2013-02-02 13:30:00,51.4,16.8,29.83,SW,225,3.0,9.0,25,0.00,,---,0.00,VWS V14.01,2013-02-02 18:30:00,
2013-02-02 14:00:00,53.4,18.5,29.82,SW,225,3.0,8.0,25,0.00,,---,0.00,VWS V14.01,2013-02-02 19:00:00,
2013-02-02 14:30:00,55.3,19.1,29.80,SW,225,3.0,10.0,24,0.00,,---,0.00,VWS V14.01,2013-02-02 19:30:00,
2013-02-02 15:00:00,57.1,20.7,29.79,WSW,248,2.0,11.0,24,0.00,,---,0.00,VWS V14.01,2013-02-02 20:00:00,
2013-02-02 15:10:00,53.4,18.5,29.82,SW,225,3.0,8.0,25,0.00,,---,0.00,VWS V14.01,2013-02-02 20:10:00,
2013-02-02 15:15:00,56.8,20.4,29.78,WNW,283,0.0,5.0,24,0.00,,---,0.00,VWS V14.01,2013-02-02 20:15:00,
2013-02-02 15:20:00,57.2,20.8,29.78,SW,231,3.0,5.0,24,0.00,,---,0.00,VWS V14.01,2013-02-02 20:20:00,
2013-02-02 15:25:00,56.9,20.5,29.77,WNW,291,3.0,5.0,24,0.00,,---,0.00,VWS V14.01,2013-02-02 20:25:00,
2013-02-02 15:30:00,57.7,21.2,29.77,WSW,244,0.0,2.0,24,0.00,,---,0.00,VWS V14.01,2013-02-02 20:30:00,
2013-02-02 15:35:00,58.0,21.4,29.77,WSW,245,1.0,7.0,24,0.00,,---,0.00,VWS V14.01,2013-02-02 20:35:00,
2013-02-02 15:40:00,57.8,20.3,29.76,SW,236,4.0,7.0,23,0.00,,---,0.00,VWS V14.01,2013-02-02 20:40:00,
2013-02-02 15:45:00,57.6,20.1,29.76,South,191,5.0,7.0,23,0.00,,---,0.00,VWS V14.01,2013-02-02 20:45:00,
2013-02-02 15:50:00,57.7,21.2,29.76,West,266,0.0,7.0,24,0.00,,---,0.00,VWS V14.01,2013-02-02 20:50:00,
2013-02-02 15:55:00,57.9,21.4,29.75,SW,236,3.0,9.0,24,0.00,,---,0.00,VWS V14.01,2013-02-02 20:55:00,
2013-02-02 16:00:00,58.2,21.6,29.75,WNW,292,1.0,4.0,24,0.00,,---,0.00,VWS V14.01,2013-02-02 21:00:00,
2013-02-02 16:05:00,58.1,20.5,29.75,SW,223,4.0,7.0,23,0.00,,---,0.00,VWS V14.01,2013-02-02 21:05:00,
2013-02-02 16:10:00,58.4,21.8,29.75,SW,228,3.0,10.0,24,0.00,,---,0.00,VWS V14.01,2013-02-02 21:10:00,
2013-02-02 16:15:00,58.6,22.9,29.74,NW,309,3.0,10.0,25,0.00,,---,0.00,VWS V14.01,2013-02-02 21:15:00,
2013-02-02 16:20:00,58.6,22.9,29.74,WSW,257,4.0,10.0,25,0.00,,---,0.00,VWS V14.01,2013-02-02 21:20:00,
2013-02-02 16:24:00,58.3,21.7,29.74,WSW,251,3.0,10.0,24,0.00,,---,0.00,VWS V14.01,2013-02-02 21:24:00,
2013-02-02 16:29:00,58.4,21.8,29.74,West,267,0.0,2.0,24,0.00,,---,0.00,VWS V14.01,2013-02-02 21:29:00,
2013-02-02 16:30:00,58.4,21.8,29.74,SW,225,3.0,10.0,24,0.00,,---,0.00,VWS V14.01,2013-02-02 21:30:00,
2013-02-02 16:34:00,58.8,23.1,29.74,South,184,2.0,4.0,25,0.00,,---,0.00,VWS V14.01,2013-02-02 21:34:00,
2013-02-02 16:39:00,58.4,22.7,29.74,SW,218,2.0,6.0,25,0.00,,---,0.00,VWS V14.01,2013-02-02 21:39:00,
2013-02-02 16:44:00,58.2,22.6,29.73,SSW,202,1.0,6.0,25,0.00,,---,0.00,VWS V14.01,2013-02-02 21:44:00,
2013-02-02 16:49:00,58.6,22.9,29.73,South,186,1.0,6.0,25,0.00,,---,0.00,VWS V14.01,2013-02-02 21:49:00,
2013-02-02 16:54:00,58.3,22.6,29.73,SSW,202,6.0,9.0,25,0.00,,---,0.00,VWS V14.01,2013-02-02 21:54:00,
2013-02-02 16:59:00,58.2,23.5,29.73,SSE,160,0.0,0.0,26,0.00,,---,0.00,VWS V14.01,2013-02-02 21:59:00,
2013-02-02 17:00:00,58.2,23.5,29.73,SSW,202,2.0,9.0,26,0.00,,---,0.00,VWS V14.01,2013-02-02 22:00:00,
2013-02-02 17:04:00,58.1,22.5,29.73,SW,221,8.0,8.0,25,0.00,,---,0.00,VWS V14.01,2013-02-02 22:04:00,
2013-02-02 17:09:00,58.0,23.3,29.72,SSW,194,2.0,8.0,26,0.00,,---,0.00,VWS V14.01,2013-02-02 22:09:00,
2013-02-02 17:14:00,58.0,23.3,29.72,SSW,196,3.0,8.0,26,0.00,,---,0.00,VWS V14.01,2013-02-02 22:14:00,
2013-02-02 17:19:00,58.0,23.3,29.72,South,188,0.0,8.0,26,0.00,,---,0.00,VWS V14.01,2013-02-02 22:19:00,
2013-02-02 17:24:00,57.9,23.2,29.72,SSW,207,4.0,8.0,26,0.00,,---,0.00,VWS V14.01,2013-02-02 22:24:00,
2013-02-02 17:29:00,57.7,23.1,29.71,South,183,4.0,4.0,26,0.00,,---,0.00,VWS V14.01,2013-02-02 22:29:00,
2013-02-02 17:30:00,57.7,23.1,29.71,SSW,202,3.0,9.0,26,0.00,,---,0.00,VWS V14.01,2013-02-02 22:30:00,
2013-02-02 17:34:00,57.3,23.6,29.71,SW,227,0.0,4.0,27,0.00,,---,0.00,VWS V14.01,2013-02-02 22:34:00,
2013-02-02 17:39:00,57.1,23.5,29.71,SSW,194,0.0,4.0,27,0.00,,---,0.00,VWS V14.01,2013-02-02 22:39:00,
2013-02-02 17:44:00,56.9,24.1,29.71,South,173,0.0,4.0,28,0.00,,---,0.00,VWS V14.01,2013-02-02 22:44:00,
2013-02-02 17:49:00,56.7,24.0,29.71,SSE,167,3.0,4.0,28,0.00,,---,0.00,VWS V14.01,2013-02-02 22:49:00,
2013-02-02 17:54:00,56.5,24.6,29.71,SSE,163,3.0,4.0,29,0.00,,---,0.00,VWS V14.01,2013-02-02 22:54:00,
2013-02-02 17:59:00,56.2,25.2,29.71,SSE,163,1.0,1.0,30,0.00,,---,0.00,VWS V14.01,2013-02-02 22:59:00,
2013-02-02 18:00:00,56.2,25.2,29.71,SSE,158,1.0,5.0,30,0.00,,---,0.00,VWS V14.01,2013-02-02 23:00:00,
2013-02-02 18:04:00,55.8,24.9,29.70,SSE,157,0.0,4.0,30,0.00,,---,0.00,VWS V14.01,2013-02-02 23:04:00,
2013-02-02 18:09:00,55.5,24.6,29.71,SSE,157,1.0,4.0,30,0.00,,---,0.00,VWS V14.01,2013-02-02 23:09:00,
2013-02-02 18:14:00,55.3,25.2,29.70,SSE,157,0.0,4.0,31,0.00,,---,0.00,VWS V14.01,2013-02-02 23:14:00,
2013-02-02 18:19:00,55.1,25.0,29.70,SSE,165,0.0,4.0,31,0.00,,---,0.00,VWS V14.01,2013-02-02 23:19:00,
2013-02-02 18:24:00,55.0,24.9,29.70,SSE,165,0.0,4.0,31,0.00,,---,0.00,VWS V14.01,2013-02-02 23:24:00,
2013-02-02 18:29:00,54.8,25.5,29.70,SSE,165,1.0,1.0,32,0.00,,---,0.00,VWS V14.01,2013-02-02 23:29:00,
2013-02-02 18:30:00,54.8,25.5,29.70,SSE,158,0.0,5.0,32,0.00,,---,0.00,VWS V14.01,2013-02-02 23:30:00,
2013-02-02 18:34:00,54.8,25.5,29.70,SSE,165,0.0,3.0,32,0.00,,---,0.00,VWS V14.01,2013-02-02 23:34:00,
2013-02-02 18:39:00,54.6,25.4,29.71,SSE,165,2.0,3.0,32,0.00,,---,0.00,VWS V14.01,2013-02-02 23:39:00,
2013-02-02 18:44:00,54.4,25.2,29.71,South,182,1.0,4.0,32,0.00,,---,0.00,VWS V14.01,2013-02-02 23:44:00,
2013-02-02 18:49:00,54.4,25.9,29.72,South,182,0.0,4.0,33,0.00,,---,0.00,VWS V14.01,2013-02-02 23:49:00,
2013-02-02 18:54:00,54.4,25.9,29.72,South,182,1.0,4.0,33,0.00,,---,0.00,VWS V14.01,2013-02-02 23:54:00,
2013-02-02 18:59:00,54.4,25.9,29.72,SW,219,2.0,4.0,33,0.00,,---,0.00,VWS V14.01,2013-02-02 23:59:00,
2013-02-02 19:00:00,54.4,25.9,29.72,South,180,1.0,4.0,33,0.00,,---,0.00,VWS V14.01,2013-02-03 00:00:00,
2013-02-02 19:04:00,54.2,26.5,29.72,SW,219,1.0,2.0,34,0.00,,---,0.00,VWS V14.01,2013-02-03 00:04:00,
2013-02-02 19:09:00,54.0,26.3,29.72,SW,219,0.0,2.0,34,0.00,,---,0.00,VWS V14.01,2013-02-03 00:09:00,
2013-02-02 19:14:00,53.8,26.1,29.73,SW,219,0.0,2.0,34,0.00,,---,0.00,VWS V14.01,2013-02-03 00:14:00,
2013-02-02 19:19:00,53.7,26.7,29.72,SW,219,0.0,2.0,35,0.00,,---,0.00,VWS V14.01,2013-02-03 00:19:00,
2013-02-02 19:24:00,53.7,26.7,29.72,SW,219,0.0,2.0,35,0.00,,---,0.00,VWS V14.01,2013-02-03 00:24:00,
2013-02-02 19:29:00,53.6,27.3,29.72,SW,219,0.0,2.0,36,0.00,,---,0.00,VWS V14.01,2013-02-03 00:29:00,
2013-02-02 19:30:00,53.6,27.3,29.72,SW,225,0.0,2.0,36,0.00,,---,0.00,VWS V14.01,2013-02-03 00:30:00,
2013-02-02 19:34:00,53.5,27.2,29.72,SW,219,0.0,0.0,36,0.00,,---,0.00,VWS V14.01,2013-02-03 00:34:00,
2013-02-02 19:39:00,53.5,27.9,29.72,SW,219,0.0,0.0,37,0.00,,---,0.00,VWS V14.01,2013-02-03 00:39:00,
2013-02-02 19:44:00,53.5,27.9,29.72,SW,219,0.0,0.0,37,0.00,,---,0.00,VWS V14.01,2013-02-03 00:44:00,
2013-02-02 19:49:00,53.4,27.8,29.71,SW,219,0.0,0.0,37,0.00,,---,0.00,VWS V14.01,2013-02-03 00:49:00,
2013-02-02 19:54:00,53.2,28.9,29.71,SW,219,0.0,0.0,39,0.00,,---,0.00,VWS V14.01,2013-02-03 00:54:00,
2013-02-02 19:59:00,53.3,29.0,29.71,SW,219,0.0,0.0,39,0.00,,---,0.00,VWS V14.01,2013-02-03 00:59:00,
2013-02-02 20:00:00,53.3,29.0,29.71,SW,225,0.0,0.0,39,0.00,,---,0.00,VWS V14.01,2013-02-03 01:00:00,
2013-02-02 20:04:00,53.4,27.8,29.72,SW,219,0.0,2.0,37,0.00,,---,0.00,VWS V14.01,2013-02-03 01:04:00,
2013-02-02 20:09:00,53.5,27.9,29.72,SW,219,0.0,2.0,37,0.00,,---,0.00,VWS V14.01,2013-02-03 01:09:00,
2013-02-02 20:14:00,53.4,27.8,29.72,SW,219,0.0,2.0,37,0.00,,---,0.00,VWS V14.01,2013-02-03 01:14:00,
2013-02-02 20:19:00,53.3,27.7,29.72,SW,219,0.0,2.0,37,0.00,,---,0.00,VWS V14.01,2013-02-03 01:19:00,
2013-02-02 20:24:00,53.0,29.3,29.73,SW,219,0.0,2.0,40,0.00,,---,0.00,VWS V14.01,2013-02-03 01:24:00,
2013-02-02 20:29:00,52.5,30.1,29.73,SW,219,0.0,2.0,42,0.00,,---,0.00,VWS V14.01,2013-02-03 01:29:00,
2013-02-02 20:30:00,52.5,30.1,29.73,SW,225,0.0,2.0,42,0.00,,---,0.00,VWS V14.01,2013-02-03 01:30:00,
2013-02-02 20:34:00,52.1,30.3,29.73,SSE,167,0.0,2.0,43,0.00,,---,0.00,VWS V14.01,2013-02-03 01:34:00,
2013-02-02 20:39:00,51.9,31.2,29.73,West,279,0.0,2.0,45,0.00,,---,0.00,VWS V14.01,2013-02-03 01:39:00,
2013-02-02 20:44:00,51.8,30.0,29.74,West,279,1.0,2.0,43,0.00,,---,0.00,VWS V14.01,2013-02-03 01:44:00,
2013-02-02 20:49:00,52.8,31.5,29.73,WNW,286,1.0,9.0,44,0.00,,---,0.00,VWS V14.01,2013-02-03 01:49:00,
2013-02-02 20:54:00,53.3,30.2,29.73,West,259,1.0,9.0,41,0.00,,---,0.00,VWS V14.01,2013-02-03 01:54:00,
2013-02-02 20:59:00,53.9,30.1,29.74,West,274,0.0,9.0,40,0.00,,---,0.00,VWS V14.01,2013-02-03 01:59:00,
2013-02-02 21:00:00,53.9,30.1,29.74,West,270,1.0,9.0,40,0.00,,---,0.00,VWS V14.01,2013-02-03 02:00:00,
2013-02-02 21:04:00,53.9,30.8,29.74,WNW,296,1.0,2.0,41,0.00,,---,0.00,VWS V14.01,2013-02-03 02:04:00,
2013-02-02 21:09:00,54.1,33.8,29.74,WNW,286,7.0,8.0,46,0.00,,---,0.00,VWS V14.01,2013-02-03 02:09:00,
2013-02-02 21:14:00,54.4,34.6,29.73,WSW,254,3.0,8.0,47,0.00,,---,0.00,VWS V14.01,2013-02-03 02:14:00,
2013-02-02 21:19:00,54.5,34.7,29.74,WSW,249,5.0,8.0,47,0.00,,---,0.00,VWS V14.01,2013-02-03 02:19:00,
2013-02-02 21:24:00,54.4,33.5,29.73,SW,225,0.0,8.0,45,0.00,,---,0.00,VWS V14.01,2013-02-03 02:24:00,
2013-02-02 21:29:00,54.2,33.9,29.73,WNW,282,3.0,8.0,46,0.00,,---,0.00,VWS V14.01,2013-02-03 02:29:00,
2013-02-02 21:30:00,54.2,33.9,29.73,SW,225,2.0,8.0,46,0.00,,---,0.00,VWS V14.01,2013-02-03 02:30:00,
2013-02-02 21:34:00,54.3,34.5,29.73,WNW,298,2.0,7.0,47,0.00,,---,0.00,VWS V14.01,2013-02-03 02:34:00,
2013-02-02 21:39:00,54.2,34.4,29.73,WNW,286,1.0,7.0,47,0.00,,---,0.00,VWS V14.01,2013-02-03 02:39:00,
2013-02-02 21:44:00,54.1,33.8,29.73,West,263,0.0,7.0,46,0.00,,---,0.00,VWS V14.01,2013-02-03 02:44:00,
2013-02-02 21:49:00,54.0,33.7,29.73,WSW,255,0.0,7.0,46,0.00,,---,0.00,VWS V14.01,2013-02-03 02:49:00,
2013-02-02 21:54:00,53.9,34.2,29.72,West,261,0.0,7.0,47,0.00,,---,0.00,VWS V14.01,2013-02-03 02:54:00,
2013-02-02 21:59:00,53.6,34.9,29.72,NNW,338,1.0,7.0,49,0.00,,---,0.00,VWS V14.01,2013-02-03 02:59:00,
2013-02-02 22:00:00,53.6,34.9,29.72,West,270,1.0,8.0,49,0.00,,---,0.00,VWS V14.01,2013-02-03 03:00:00,
2013-02-02 22:04:00,53.6,35.9,29.72,NW,306,2.0,5.0,51,0.00,,---,0.00,VWS V14.01,2013-02-03 03:04:00,
2013-02-02 22:09:00,53.6,35.9,29.72,West,270,1.0,5.0,51,0.00,,---,0.00,VWS V14.01,2013-02-03 03:09:00,
2013-02-02 22:13:00,53.5,36.3,29.73,WNW,290,2.0,5.0,52,0.00,,---,0.00,VWS V14.01,2013-02-03 03:13:00,
2013-02-02 22:18:00,53.5,37.3,29.73,NW,311,0.0,5.0,54,0.00,,---,0.00,VWS V14.01,2013-02-03 03:18:00,
2013-02-02 22:23:00,53.3,37.6,29.72,WNW,301,0.0,5.0,55,0.00,,---,0.00,VWS V14.01,2013-02-03 03:23:00,
2013-02-02 22:28:00,53.0,38.2,29.72,West,276,2.0,5.0,57,0.00,,---,0.00,VWS V14.01,2013-02-03 03:28:00,
2013-02-02 22:30:00,52.9,38.1,29.72,WNW,292,1.0,5.0,57,0.00,,---,0.00,VWS V14.01,2013-02-03 03:30:00,
2013-02-02 22:33:00,52.6,38.3,29.72,West,276,0.0,1.0,58,0.00,,---,0.00,VWS V14.01,2013-02-03 03:33:00,
2013-02-02 22:38:00,52.3,38.4,29.71,West,272,1.0,5.0,59,0.00,,---,0.00,VWS V14.01,2013-02-03 03:38:00,
2013-02-02 22:43:00,52.1,38.7,29.71,West,277,1.0,8.0,60,0.00,,---,0.00,VWS V14.01,2013-02-03 03:43:00,
2013-02-02 22:48:00,51.7,38.7,29.71,West,279,2.0,8.0,61,0.00,,---,0.00,VWS V14.01,2013-02-03 03:48:00,
2013-02-02 22:53:00,51.5,38.9,29.71,West,274,0.0,8.0,62,0.00,,---,0.00,VWS V14.01,2013-02-03 03:53:00,
2013-02-02 22:58:00,51.2,39.0,29.71,West,274,0.0,8.0,63,0.00,,---,0.00,VWS V14.01,2013-02-03 03:58:00,
2013-02-02 23:00:00,51.2,39.0,29.71,West,270,1.0,9.0,63,0.00,,---,0.00,VWS V14.01,2013-02-03 04:00:00,
2013-02-02 23:03:00,51.0,38.9,29.71,West,262,0.0,2.0,63,0.00,,---,0.00,VWS V14.01,2013-02-03 04:03:00,
2013-02-02 23:08:00,50.6,38.5,29.71,West,262,0.0,2.0,63,0.00,,---,0.00,VWS V14.01,2013-02-03 04:08:00,
2013-02-02 23:13:00,50.5,38.8,29.71,West,262,0.0,2.0,64,0.00,,---,0.00,VWS V14.01,2013-02-03 04:13:00,
2013-02-02 23:18:00,50.4,39.1,29.71,West,262,0.0,2.0,65,0.00,,---,0.00,VWS V14.01,2013-02-03 04:18:00,
2013-02-02 23:23:00,50.2,38.9,29.71,West,262,0.0,2.0,65,0.00,,---,0.00,VWS V14.01,2013-02-03 04:23:00,
2013-02-02 23:28:00,50.1,39.2,29.71,West,262,1.0,3.0,66,0.00,,---,0.00,VWS V14.01,2013-02-03 04:28:00,
2013-02-02 23:30:00,50.0,39.1,29.71,West,270,0.0,3.0,66,0.00,,---,0.00,VWS V14.01,2013-02-03 04:30:00,
2013-02-02 23:33:00,49.9,39.4,29.70,SW,230,0.0,4.0,67,0.00,,---,0.00,VWS V14.01,2013-02-03 04:33:00,
2013-02-02 23:38:00,49.7,39.2,29.70,SW,230,0.0,4.0,67,0.00,,---,0.00,VWS V14.01,2013-02-03 04:38:00,
2013-02-02 23:43:00,49.6,39.5,29.70,SW,229,0.0,4.0,68,0.00,,---,0.00,VWS V14.01,2013-02-03 04:43:00,
2013-02-02 23:48:00,49.6,39.5,29.70,SW,230,0.0,4.0,68,0.00,,---,0.00,VWS V14.01,2013-02-03 04:48:00,
2013-02-02 23:53:00,49.6,39.5,29.70,SW,230,0.0,4.0,68,0.00,,---,0.00,VWS V14.01,2013-02-03 04:53:00,
2013-02-02 23:58:00,49.6,39.9,29.70,SW,229,1.0,4.0,69,0.00,,---,0.00,VWS V14.01,2013-02-03 04:58:00,